Date String (YYYY-MM-DD hh:mm:ss) UTC,Instrument flags,Ambient pressure (hPa),Sample flow (lpm),Bypass flow (lpm),Sample temperature (°C),Ambient temperature (°C),ASC tube jacket temperature (°C),LED temperature (°C),Box temperature (°C),Sample RH (%),Span deviation,Mass concentration (μg/m³),Mass concentration (μg/m³),Mass concentration (μg/m³)
DateTimeUTC,F1_M11,P_M11,Q1_M11,Q2_M11,T1_M11,T2_M11,T3_M11,T4_M11,T5_M11,U1_M11,ZSPAN_M11,X0_M11,X2_M11,X1_M11
2021-10-22 15:00:00,,0828.3,5.00,0.00,26.9,26.2,00.0,35.8,28.9,09.5,0000.0,0010.77,0003.63,0002.78
2021-10-22 15:01:00,,0828.2,5.00,0.00,27.0,26.2,00.0,35.9,28.8,09.8,0000.0,0010.76,0003.63,0002.73
2021-10-22 15:02:00,,0828.2,5.00,0.00,27.0,26.2,00.0,35.9,28.9,09.5,0000.0,0011.59,0003.64,0002.73
2021-10-22 15:03:00,,0828.2,5.01,0.00,27.0,26.2,00.0,35.9,28.9,09.4,0000.0,0011.82,0003.61,0002.67
2021-10-22 15:04:00,,0828.3,4.99,0.00,27.0,26.3,00.0,35.9,28.9,09.7,0000.0,0011.79,0003.60,0002.66
2021-10-22 15:05:00,,0828.2,5.01,0.00,27.0,26.3,00.0,35.9,28.9,10.2,0000.0,0011.50,0003.55,0002.66
2021-10-22 15:06:00,,0828.2,5.01,0.00,27.0,26.3,00.0,36.0,28.9,10.6,0000.0,0011.45,0003.61,0002.72
2021-10-22 15:07:00,,0828.2,4.99,0.00,27.0,26.3,00.0,36.0,28.9,10.7,0000.0,0011.74,0003.63,0002.78
2021-10-22 15:08:00,,0828.2,5.00,0.00,27.1,26.3,00.0,36.0,28.9,10.9,0000.0,0010.65,0003.67,0002.84
2021-10-22 15:09:00,,0828.2,5.01,0.00,27.1,26.3,00.0,36.0,29.0,10.7,0000.0,0010.20,0003.71,0002.89
2021-10-22 15:10:00,,0828.3,4.99,0.00,27.1,26.3,00.0,36.0,29.0,10.7,0000.0,0010.37,0003.81,0002.95
2021-10-22 15:11:00,,0828.3,5.00,0.00,27.1,26.3,00.0,36.0,29.0,11.3,0000.0,0010.13,0003.88,0003.00
2021-10-22 15:12:00,,0828.3,5.01,0.00,27.1,26.4,00.0,36.1,29.0,11.6,0000.0,0010.50,0003.90,0003.04
2021-10-22 15:13:00,,0828.3,5.00,0.00,27.1,26.4,00.0,36.1,29.0,12.3,0000.0,0010.97,0003.95,0003.05
2021-10-22 15:14:00,,0828.3,5.00,0.00,27.2,26.4,00.0,36.1,29.0,12.4,0000.0,0012.24,0004.12,0003.14
2021-10-22 15:15:00,,0828.3,5.00,0.00,27.2,26.4,00.0,36.1,29.1,12.1,0000.0,0013.10,0004.28,0003.18
2021-10-22 15:16:00,,0828.2,5.01,0.00,27.2,26.4,00.0,36.1,29.1,11.4,0000.0,0016.06,0004.35,0003.18
2021-10-22 15:17:00,,0828.2,5.00,0.00,27.2,26.5,00.0,36.1,29.1,11.2,0000.0,0017.28,0004.32,0003.15
2021-10-22 15:18:00,,0828.2,4.99,0.00,27.2,26.5,00.0,36.1,29.1,11.1,0000.0,0017.42,0004.29,0003.12
2021-10-22 15:19:00,,0828.4,5.01,0.00,27.2,26.5,00.0,36.2,29.1,11.1,0000.0,0017.78,0004.35,0003.11
2021-10-22 15:20:00,,0828.3,5.01,0.00,27.3,26.5,00.0,36.2,29.1,10.9,0000.0,0017.85,0004.35,0003.09
2021-10-22 15:21:00,,0828.2,4.99,0.00,27.3,26.6,00.0,36.2,29.1,10.6,0000.0,0018.22,0004.33,0003.08
2021-10-22 15:22:00,,0828.2,5.00,0.00,27.3,26.6,00.0,36.2,29.2,10.8,0000.0,0019.27,0004.33,0003.06
2021-10-22 15:23:00,,0828.4,5.00,0.00,27.3,26.6,00.0,36.2,29.2,10.7,0000.0,0019.90,0004.29,0003.00
2021-10-22 15:24:00,,0828.2,5.02,0.00,27.3,26.6,00.0,36.2,29.2,11.2,0000.0,0019.60,0004.26,0002.98
2021-10-22 15:25:00,,0828.2,4.99,0.00,27.4,26.6,00.0,36.3,29.2,11.1,0000.0,0018.53,0004.14,0002.93
2021-10-22 15:26:00,,0828.2,5.01,0.00,27.4,26.7,00.0,36.3,29.3,11.0,0000.0,0019.23,0004.06,0002.86
2021-10-22 15:27:00,,0828.3,4.99,0.00,27.4,26.7,00.0,36.3,29.3,10.4,0000.0,0016.86,0004.04,0002.83
2021-10-22 15:28:00,,0828.3,5.01,0.00,27.4,26.7,00.0,36.3,29.3,10.2,0000.0,0015.48,0004.02,0002.77
2021-10-22 15:29:00,,0828.2,4.99,0.00,27.4,26.7,00.0,36.4,29.3,10.3,0000.0,0015.31,0004.02,0002.72
2021-10-22 15:30:00,,0828.2,4.99,0.00,27.4,26.7,00.0,36.4,29.4,10.3,0000.0,0015.77,0003.94,0002.68
2021-10-22 15:31:00,,0828.2,5.00,0.00,27.5,26.7,00.0,36.4,29.4,10.1,0000.0,0015.75,0003.90,0002.65
2021-10-22 15:32:00,,0828.3,5.01,0.00,27.5,26.7,00.0,36.4,29.3,10.1,0000.0,0015.48,0003.91,0002.64
2021-10-22 15:33:00,,0828.3,5.00,0.00,27.5,26.7,00.0,36.4,29.3,10.2,0000.0,0014.96,0003.88,0002.63
2021-10-22 15:34:00,,0828.2,5.00,0.00,27.5,26.8,00.0,36.4,29.3,10.3,0000.0,0013.86,0003.89,0002.65
2021-10-22 15:35:00,,0828.3,4.99,0.00,27.5,26.8,00.0,36.4,29.3,10.5,0000.0,0012.90,0003.87,0002.65
2021-10-22 15:36:00,,0828.2,5.01,0.00,27.5,26.8,00.0,36.5,29.3,11.0,0000.0,0012.86,0003.88,0002.65
2021-10-22 15:37:00,,0828.1,5.00,0.00,27.5,26.8,00.0,36.5,29.4,10.7,0000.0,0012.03,0003.85,0002.66
2021-10-22 15:38:00,,0828.1,4.99,0.00,27.5,26.8,00.0,36.5,29.4,10.3,0000.0,0011.18,0003.83,0002.69
2021-10-22 15:39:00,,0828.2,5.00,0.00,27.6,26.9,00.0,36.5,29.4,10.0,0000.0,0011.14,0003.83,0002.74
2021-10-22 15:40:00,,0828.2,5.00,0.00,27.6,26.9,00.0,36.5,29.5,10.2,0000.0,0011.17,0003.82,0002.78
2021-10-22 15:41:00,,0828.2,5.00,0.00,27.6,26.9,00.0,36.5,29.5,10.3,0000.0,0010.22,0003.79,0002.81
2021-10-22 15:42:00,,0828.1,5.01,0.00,27.6,26.9,00.0,36.6,29.5,10.2,0000.0,0010.79,0003.81,0002.84
2021-10-22 15:43:00,,0828.1,4.99,0.00,27.6,27.0,00.0,36.6,29.5,10.4,0000.0,0011.50,0003.78,0002.86
2021-10-22 15:44:00,,0828.1,5.01,0.00,27.7,27.0,00.0,36.6,29.6,10.2,0000.0,0011.10,0003.80,0002.86
2021-10-22 15:45:00,,0828.1,4.98,0.00,27.7,27.0,00.0,36.6,29.6,10.2,0000.0,0011.20,0003.77,0002.85
2021-10-22 15:46:00,,0828.1,4.99,0.00,27.7,27.0,00.0,36.6,29.6,09.7,0000.0,0011.32,0003.72,0002.83
2021-10-22 15:47:00,,0828.1,5.01,0.00,27.7,27.0,00.0,36.7,29.6,09.6,0000.0,0010.79,0003.63,0002.77
2021-10-22 15:48:00,,0828.1,5.00,0.00,27.8,27.1,00.0,36.7,29.6,10.4,0000.0,0010.31,0003.63,0002.76
2021-10-22 15:49:00,,0828.1,4.99,0.00,27.8,27.1,00.0,36.7,29.6,09.9,0000.0,0010.58,0003.66,0002.76
2021-10-22 15:50:00,,0828.1,5.01,0.00,27.8,27.1,00.0,36.7,29.7,10.3,0000.0,0010.89,0003.68,0002.76
2021-10-22 15:51:00,,0828.1,5.00,0.00,27.8,27.1,00.0,36.7,29.7,10.2,0000.0,0010.68,0003.69,0002.77
2021-10-22 15:52:00,,0828.2,5.00,0.00,27.8,27.1,00.0,36.8,29.7,10.1,0000.0,0010.82,0003.74,0002.77
2021-10-22 15:53:00,,0828.1,5.00,0.00,27.8,27.2,00.0,36.8,29.7,10.2,0000.0,0010.61,0003.78,0002.79
2021-10-22 15:54:00,,0828.1,4.99,0.00,27.9,27.2,00.0,36.8,29.8,10.1,0000.0,0009.97,0003.79,0002.82
2021-10-22 15:55:00,,0828.1,5.00,0.00,27.9,27.2,00.0,36.8,29.8,10.5,0000.0,0011.01,0003.82,0002.88
2021-10-22 15:56:00,,0828.1,5.00,0.00,27.9,27.2,00.0,36.8,29.8,10.5,0000.0,0011.88,0003.88,0002.94
2021-10-22 15:57:00,,0828.0,5.00,0.00,27.9,27.2,00.0,36.9,29.8,10.4,0000.0,0011.80,0003.93,0003.00
2021-10-22 15:58:00,,0828.0,4.99,0.00,27.9,27.2,00.0,36.9,29.8,10.2,0000.0,0012.11,0004.04,0003.09
2021-10-22 15:59:00,,0828.0,5.02,0.00,28.0,27.2,00.0,36.9,29.8,10.2,0000.0,0012.10,0004.04,0003.14
